[[{"header":{"parameterUnit":"m.s-1","parameterCategory":1,"la1":30.2991,"la2":30.254,"lo1":-89.0895,"lo2":-89.0444,"dy":0.0017,"dx":0.0017,"nx":28,"ny":28,"refTime":"2023-04-05T15:00:00:Z","depth":0,"parameterNumber":2,"parameterNumberName":"U-component_of_WINDS"},"data":[0,0,0,0,0,0,0,0,0,0,0,0,0,0,0,0,0,0,0,0,0,0,0,0,0,0,0,0,0,0,0,0,0,0,0,0,0,0,0,0,0,0,0,0,0,0,0,0,0,0,0,0,0,0,0,0,0,0,-3.2215,-3.2217,0,-3.2386,-3.2388,-3.239,-3.2449,-3.2448,-3.2448,-3.2447,-3.2625,-3.2631,-3.2636,0,0,0,0,0,0,0,0,0,0,0,0,0,-3.1943,-3.1948,-3.2215,-3.2217,-3.2219,-3.2386,-3.2388,-3.239,-3.2449,-3.2448,-3.2447,-3.2447,-3.2624,-3.263,-3.2636,0,0,0,0,0,0,0,0,0,0,0,0,0,-3.2082,-3.195,-3.2214,-3.2268,-3.2275,-3.2385,-3.2388,-3.2391,-3.2449,-3.2448,-3.2447,-3.2446,-3.2622,-3.2629,-3.2637,-3.2707,0,0,-3.2662,-3.2666,0,0,0,0,0,0,0,0,-3.2075,-3.2092,-3.2258,-3.2265,-3.2272,-3.2395,-3.2358,-3.2497,-3.2449,-3.2383,-3.2447,-3.2446,-3.255,-3.2564,-3.2598,-3.2716,-3.2723,-3.2663,-3.2668,-3.2671,-3.2673,0,0,0,0,0,0,0,-3.2065,-3.2085,-3.2283,-3.2261,-3.2269,-3.2285,-3.2304,-3.2384,-3.247,-3.2389,-3.2394,-3.2413,-3.2553,-3.259,-3.2603,-3.2726,-3.2663,-3.267,-3.2675,-3.2678,-3.291,-3.2912,0,0,0,0,0,0,-3.2046,-3.2077,-3.2277,-3.2288,-3.2169,-3.2291,-3.2312,-3.2357,-3.2469,-3.2486,-3.2413,-3.2415,-3.2577,-3.2593,-3.2609,-3.2699,-3.2671,-3.2679,-3.2683,-3.2909,-3.2911,-3.2912,0,0,0,0,0,0,-3.204,-3.2063,-3.227,-3.2184,-3.2211,-3.2297,-3.2347,-3.2361,-3.2397,-3.2488,-3.2504,-3.2435,-3.2577,-3.2598,-3.2682,-3.2706,-3.2682,-3.269,-3.2907,-3.291,-3.2911,-3.2878,0,0,0,0,0,0,-3.2031,-3.206,-3.2087,-3.2184,-3.2216,-3.2339,-3.2348,-3.2365,-3.2411,-3.2414,-3.2512,-3.2528,-3.2578,-3.267,-3.269,-3.2716,-3.2696,-3.2906,-3.2908,-3.2911,-3.2877,-3.2878,-3.2879,0,0,0,0,0,-3.2022,-3.2071,-3.2088,-3.2112,-3.225,-3.234,-3.2359,-3.2414,-3.2412,-3.244,-3.2499,-3.2525,-3.27,-3.2678,-3.2702,-3.273,-3.2905,-3.2908,-3.2911,-3.2876,-3.2878,-3.2879,0,0,0,0,0,0,-3.1976,-3.2085,-3.2105,-3.2187,-3.2254,-3.235,-3.2387,-3.2414,-3.2484,-3.2484,-3.2551,-3.2573,-3.2652,-3.27,-3.2674,-3.2804,-3.2804,-3.2812,-3.277,-3.2772,-3.2773,-3.276,-3.2703,0,0,0,0,0,-3.1975,-3.2038,-3.213,-3.2194,-3.2227,-3.2301,-3.2342,-3.2379,-3.2452,-3.2481,-3.2545,-3.2616,-3.2687,-3.2732,-3.2803,-3.2885,-3.2907,-3.2916,-3.2917,-3.2917,-3.2923,-3.297,-3.2976,-3.2922,-3.2922,-3.2922,0,0,-3.1975,-3.2042,-3.2078,-3.2187,-3.2243,-3.2307,-3.2324,-3.2392,-3.2441,-3.2492,-3.2575,-3.2625,-3.2708,-3.2791,-3.2831,-3.2833,-3.2943,-3.2921,-3.2921,-3.2927,-3.2974,-3.2979,-3.2983,-3.2924,-3.2924,-3.2923,0,0,-3.2007,-3.2064,-3.2123,-3.2179,-3.2263,-3.2313,-3.2327,-3.242,-3.2454,-3.2539,-3.2578,-3.2638,-3.2759,-3.2816,-3.2861,-3.2916,-3.2942,-3.2937,-3.2943,-3.2988,-3.2992,-3.2996,-3.3015,-3.3021,-3.2943,-3.2943,-3.2943,0,-3.1996,-3.2094,-3.2151,-3.2216,-3.2263,-3.2311,-3.2372,-3.2424,-3.2527,-3.2559,-3.256,-3.2713,-3.2772,-3.287,-3.2883,-3.2918,-3.2937,-3.2926,-3.2986,-3.2991,-3.2996,-3.3015,-3.3022,-3.2941,-3.2942,-3.2942,-3.2942,0,-3.2076,-3.2143,-3.2181,-3.2278,-3.233,-3.2393,-3.2461,-3.2506,-3.2539,-3.2588,-3.2674,-3.2747,-3.2833,-3.2859,-3.2892,-3.2962,-3.2961,-3.2973,-3.2974,-3.2999,-3.3018,-3.3026,-3.294,-3.294,-3.294,-3.2941,0,0,-3.2084,-3.2212,-3.2225,-3.2269,-3.2366,-3.242,-3.2486,-3.2569,-3.2606,-3.2677,-3.2734,-3.2835,-3.2847,-3.2899,-3.2939,-3.2978,-3.3017,-3.2987,-3.299,-3.2989,-3.3098,-3.3088,-3.3095,-3.3035,-3.3037,-3.3038,-3.3091,0,-3.2128,-3.2246,-3.2299,-3.2394,-3.2457,-3.2503,-3.256,-3.2627,-3.2675,-3.2736,-3.279,-3.2861,-3.2872,-3.2903,-3.2944,-3.3003,-3.3039,-3.3,-3.309,-3.3092,-3.3067,-3.3105,-3.3095,-3.3141,-3.3099,-3.31,-3.3101,0,-3.2196,-3.2264,-3.2364,-3.2453,-3.2482,-3.2532,-3.2613,-3.2671,-3.2747,-3.278,-3.2837,-3.2875,-3.2947,-3.2943,-3.3044,-3.3016,-3.3056,-3.3091,-3.3094,-3.3104,-3.3098,-3.3116,-3.3157,-3.3164,-3.3114,-3.3113,-3.3112,0,-3.2191,-3.2309,-3.2384,-3.2421,-3.2527,-3.2561,-3.2607,-3.2683,-3.2729,-3.28,-3.2831,-3.291,-3.2953,-3.3014,-3.3073,-3.3065,-3.3168,-3.3169,-3.3198,-3.3196,-3.3217,-3.3215,-3.3264,-3.3243,-3.3243,-3.3243,-3.3243,0,-3.2235,-3.2295,-3.2383,-3.2429,-3.2497,-3.2559,-3.2625,-3.2675,-3.2742,-3.2799,-3.2845,-3.2898,-3.2973,-3.3036,-3.3083,-3.316,-3.3179,-3.3208,-3.322,-3.3204,-3.32,-3.3231,-3.3229,-3.3245,-3.3244,-3.3244,-3.3244,0,-3.2241,-3.2303,-3.2388,-3.2481,-3.2506,-3.2552,-3.2632,-3.2679,-3.2729,-3.2802,-3.2822,-3.2902,-3.2979,-3.3044,-3.3145,-3.3177,-3.3256,-3.327,-3.3229,-3.3235,-3.326,-3.3257,-3.3331,-3.3344,-3.3314,-3.3314,-3.3314,0,-3.2265,-3.2312,-3.2409,-3.245,-3.2495,-3.2561,-3.2608,-3.2671,-3.2719,-3.2809,-3.2846,-3.2925,-3.2992,-3.3113,-3.3181,-3.3259,-3.3275,-3.3296,-3.3287,-3.327,-3.3276,-3.3272,-3.3277,-3.3296,-3.3296,-3.3296,-3.3296,0,-3.2301,-3.2329,-3.2394,-3.2471,-3.2525,-3.2589,-3.2654,-3.2686,-3.2761,-3.2812,-3.289,-3.2942,-3.3045,-3.3124,-3.3209,-3.3259,-3.329,-3.3298,-3.3309,-3.3293,-3.3267,-3.3281,-3.323,-3.3296,-3.3296,-3.3296,-3.3296,-3.3296,-3.2317,-3.236,-3.2436,-3.2507,-3.2562,-3.2622,-3.267,-3.2726,-3.2792,-3.288,-3.2913,-3.2993,-3.307,-3.3187,-3.3236,-3.3301,-3.3305,-3.3321,-3.3325,-3.3328,-3.3325,-3.3257,-3.3317,-3.3317,-3.3317,-3.3317,-3.3317,0,-3.2355,-3.2406,-3.2471,-3.2559,-3.2616,-3.2639,-3.2712,-3.2759,-3.2828,-3.2895,-3.296,-3.305,-3.3127,-3.32,-3.3281,-3.3319,-3.3335,-3.3338,-3.3336,-3.3347,-3.3317,-3.3299,-3.3323,-3.3323,-3.3323,-3.3323,-3.3323,-3.3323,-3.2382,-3.2456,-3.2493,-3.2596,-3.2646,-3.2724,-3.2763,-3.2819,-3.2873,-3.2971,-3.3034,-3.3081,-3.3152,-3.3238,-3.331,-3.333,-3.3357,-3.3356,-3.338,-3.335,-3.3349,-3.3347,-3.3331,-3.3361,-3.3361,-3.3404,-3.3405,-3.3405]},{"header":{"parameterUnit":"m.s-1","parameterCategory":1,"la1":30.2991,"la2":30.254,"lo1":-89.0895,"lo2":-89.0444,"dy":0.0017,"dx":0.0017,"nx":28,"ny":28,"refTime":"2023-04-05T15:00:00:Z","depth":0,"parameterNumber":3,"parameterNumberName":"V-component_of_WINDS"},"data":[0,0,0,0,0,0,0,0,0,0,0,0,0,0,0,0,0,0,0,0,0,0,0,0,0,0,0,0,0,0,0,0,0,0,0,0,0,0,0,0,0,0,0,0,0,0,0,0,0,0,0,0,0,0,0,0,0,0,5.5698,5.57,0,5.586,5.5862,5.5864,5.5911,5.591,5.5909,5.5908,5.6072,5.6077,5.6082,0,0,0,0,0,0,0,0,0,0,0,0,0,5.5428,5.5433,5.5698,5.57,5.5702,5.586,5.5862,5.5864,5.5911,5.591,5.5909,5.5908,5.607,5.6076,5.6083,0,0,0,0,0,0,0,0,0,0,0,0,0,5.5563,5.5434,5.5698,5.5745,5.575,5.5859,5.5862,5.5865,5.5911,5.591,5.5909,5.5907,5.6068,5.6076,5.6084,5.6157,0,0,5.6107,5.6111,0,0,0,0,0,0,0,0,5.5555,5.5573,5.5736,5.5741,5.5748,5.5864,5.5827,5.5963,5.5911,5.585,5.5908,5.5907,5.6004,5.6017,5.605,5.6165,5.6172,5.6108,5.6113,5.6116,5.6118,0,0,0,0,0,0,0,5.5546,5.5566,5.5762,5.5738,5.5746,5.5757,5.5775,5.5853,5.5932,5.5855,5.5859,5.5878,5.6007,5.6042,5.6054,5.6174,5.6108,5.6115,5.6119,5.6122,5.636,5.6361,0,0,0,0,0,0,5.5529,5.5558,5.5757,5.5767,5.5647,5.5763,5.5783,5.5828,5.5931,5.5946,5.5879,5.5879,5.603,5.6045,5.606,5.6155,5.6116,5.6123,5.6128,5.6358,5.636,5.6362,0,0,0,0,0,0,5.5523,5.5546,5.5751,5.5664,5.5691,5.5769,5.5819,5.5832,5.5868,5.5949,5.5963,5.59,5.6029,5.6049,5.6133,5.6162,5.6127,5.6134,5.6356,5.6359,5.6361,5.6345,0,0,0,0,0,0,5.5515,5.5544,5.5573,5.5664,5.5695,5.5822,5.5821,5.5836,5.5881,5.5883,5.5973,5.5987,5.603,5.6121,5.6141,5.6172,5.614,5.6354,5.6357,5.636,5.6343,5.6346,5.6349,0,0,0,0,0,5.5505,5.5561,5.5574,5.5598,5.5733,5.5823,5.5841,5.589,5.5883,5.5913,5.5966,5.5984,5.6154,5.613,5.6152,5.6185,5.6353,5.6356,5.636,5.6342,5.6346,5.6349,0,0,0,0,0,0,5.5471,5.5574,5.559,5.5677,5.5741,5.5831,5.587,5.5892,5.5959,5.5958,5.6015,5.6035,5.6116,5.6158,5.6129,5.6263,5.6254,5.6262,5.6233,5.6237,5.624,5.6229,5.6146,0,0,0,0,0,5.5473,5.5538,5.5624,5.5693,5.5724,5.5792,5.5832,5.5865,5.5933,5.596,5.6019,5.6084,5.6153,5.6197,5.6264,5.6348,5.637,5.6382,5.6385,5.6387,5.6395,5.6445,5.6452,5.6374,5.6374,5.6374,0,0,5.5479,5.5543,5.5581,5.5688,5.5741,5.5807,5.5814,5.5883,5.5933,5.597,5.6055,5.61,5.6176,5.6261,5.6302,5.63,5.642,5.6392,5.6393,5.64,5.6449,5.6456,5.6463,5.6377,5.6376,5.6376,0,0,5.5525,5.5579,5.5643,5.5697,5.5778,5.5822,5.5837,5.5924,5.5956,5.6041,5.6072,5.613,5.6247,5.6301,5.6344,5.6409,5.6429,5.6429,5.6446,5.6493,5.65,5.6505,5.6531,5.6539,5.6435,5.6435,5.6435,0,5.5522,5.5623,5.5673,5.5742,5.5788,5.5826,5.5891,5.594,5.6039,5.607,5.6066,5.6214,5.6268,5.6367,5.6383,5.6416,5.6436,5.6421,5.6495,5.6501,5.6507,5.6532,5.6541,5.6435,5.6435,5.6435,5.6435,0,5.5617,5.5686,5.5728,5.5824,5.5875,5.5941,5.6002,5.6047,5.6074,5.6118,5.6205,5.6271,5.6353,5.6378,5.6405,5.6482,5.6479,5.6483,5.6476,5.6513,5.6538,5.6548,5.6435,5.6435,5.6435,5.6435,0,0,5.5647,5.577,5.5785,5.5829,5.5921,5.5976,5.6043,5.6125,5.6164,5.6229,5.6289,5.6386,5.6392,5.644,5.6473,5.6515,5.6565,5.6515,5.6518,5.6524,5.6656,5.6654,5.6664,5.6578,5.658,5.6581,5.6651,0,5.5707,5.5831,5.5878,5.598,5.6046,5.6081,5.6141,5.6203,5.6247,5.6308,5.6355,5.6425,5.6426,5.6455,5.6498,5.655,5.6593,5.6545,5.6635,5.6637,5.6618,5.6677,5.6675,5.6737,5.666,5.6662,5.6663,0,5.5793,5.5862,5.597,5.6055,5.6085,5.6137,5.6216,5.6274,5.6346,5.6374,5.6428,5.6458,5.6531,5.6517,5.6618,5.6585,5.6624,5.6655,5.6658,5.6671,5.6655,5.6694,5.6758,5.6768,5.6678,5.6677,5.6676,0,5.5808,5.5927,5.6008,5.6044,5.6145,5.6181,5.6225,5.6295,5.6341,5.6409,5.644,5.6515,5.6556,5.6614,5.6663,5.6648,5.6761,5.675,5.6788,5.6787,5.6812,5.6811,5.6887,5.6832,5.6832,5.6832,5.6832,0,5.5871,5.5937,5.6016,5.6066,5.6141,5.6193,5.6266,5.6311,5.6373,5.6433,5.6467,5.6522,5.6583,5.6646,5.6684,5.6764,5.6781,5.6807,5.6817,5.6806,5.6803,5.6835,5.6833,5.6834,5.6834,5.6833,5.6833,0,5.5902,5.5957,5.6048,5.6136,5.6159,5.6211,5.6286,5.6336,5.6379,5.6454,5.6475,5.6544,5.662,5.6674,5.6771,5.6797,5.6884,5.6892,5.686,5.6866,5.6901,5.6898,5.7002,5.702,5.695,5.6951,5.6951,0,5.594,5.5992,5.6085,5.6128,5.6172,5.6239,5.6287,5.634,5.6388,5.6473,5.6513,5.6591,5.6657,5.6776,5.6835,5.691,5.6922,5.6953,5.6934,5.6921,5.6926,5.6924,5.693,5.6957,5.6958,5.6958,5.6958,0,5.6003,5.6028,5.6096,5.6173,5.6229,5.6292,5.6356,5.6389,5.6453,5.6505,5.6583,5.6634,5.6734,5.6812,5.6892,5.6936,5.6959,5.6964,5.6977,5.6968,5.6948,5.6962,5.6871,5.6962,5.6961,5.6961,5.6961,5.6961,5.6042,5.609,5.6163,5.6238,5.6291,5.635,5.6402,5.6452,5.6519,5.6605,5.6631,5.6713,5.6783,5.6894,5.6939,5.7003,5.7002,5.702,5.7026,5.703,5.7031,5.6935,5.7018,5.7018,5.7018,5.7018,5.7018,0,5.6109,5.6158,5.6226,5.6314,5.6373,5.6388,5.6459,5.6507,5.6579,5.6643,5.6707,5.6797,5.6872,5.6937,5.7015,5.7054,5.7066,5.7073,5.7072,5.7083,5.7026,5.7009,5.7062,5.7062,5.7062,5.7062,5.7062,5.7062,5.6152,5.6235,5.6268,5.6378,5.6426,5.6508,5.6547,5.6601,5.6653,5.6753,5.6816,5.6857,5.6922,5.7005,5.7075,5.7091,5.712,5.7125,5.7144,5.7091,5.7086,5.7081,5.7065,5.713,5.713,5.7196,5.7196,5.7197]}]]